Location: Newark
(15.4608°S, 41.1635°W)
Time: 19:21:32
(UTC+00:00)

SR - All Passes

Search period start: 04 March 2021 00:00
Search period end: 14 March 2021 00:00
Orbit: 573 x 882 km, 66.7° (Epoch: 04 March)

Date Brightness Start Highest point End Pass type
(mag) Time Alt. Az. Time Alt. Az. Time Alt. Az.
04 Mar - 07:28:24 10° NE 07:31:27 15° ENE 07:34:24 10° ESE visible
04 Mar - 09:08:20 10° NW 09:13:16 37° WSW 09:17:51 10° S daylight
04 Mar - 19:43:52 10° SSW 19:48:11 66° WNW 19:52:47 10° NNE daylight
05 Mar - 08:18:07 10° NNW 08:23:34 87° ENE 08:28:33 10° SSE visible
05 Mar - 18:54:24 10° S 18:58:31 41° ESE 19:02:51 10° NE daylight
06 Mar - 07:29:00 10° N 07:33:52 34° ENE 07:38:24 10° SE visible
06 Mar - 09:12:30 10° WNW 09:15:44 16° WSW 09:18:51 10° SSW daylight
06 Mar - 18:06:10 10° SSE 18:08:46 15° ESE 18:11:25 10° ENE daylight
06 Mar - 19:46:55 10° SW 19:50:34 26° WNW 19:54:25 10° NNW daylight
07 Mar - 06:41:33 10° NE 06:44:11 14° ENE 06:46:43 10° ESE visible
07 Mar - 08:20:59 10° NW 08:25:59 40° WSW 08:30:37 10° S visible
07 Mar - 18:56:32 10° SSW 19:00:54 74° WNW 19:05:33 10° NNE daylight
08 Mar - 07:30:53 10° NNW 07:36:17 80° ENE 07:41:15 10° SSE visible
08 Mar - 18:07:09 10° S 18:11:13 37° ESE 18:15:30 10° NE daylight
08 Mar - 19:52:34 10° WNW 19:52:55 10° WNW 19:53:19 10° WNW daylight
09 Mar - 06:41:52 10° N 06:46:35 31° ENE 06:50:59 10° SE visible
09 Mar - 08:24:58 10° WNW 08:28:26 18° WSW 08:31:45 10° SSW visible
09 Mar - 17:19:09 10° SSE 17:21:27 14° ESE 17:23:49 10° E daylight
09 Mar - 18:59:28 10° SW 19:03:16 28° WNW 19:07:18 10° N daylight
10 Mar - 05:54:48 10° NE 05:56:54 12° ENE 05:58:56 10° E visible
10 Mar - 07:33:39 10° NW 07:38:42 44° WSW 07:43:22 10° S visible
10 Mar - 18:09:12 10° SSW 18:13:36 83° WNW 18:18:18 10° NNE daylight
11 Mar - 06:43:39 10° NNW 06:49:00 73° ENE 06:53:55 10° SSE visible
11 Mar - 17:19:55 10° S 17:23:54 34° ESE 17:28:07 10° NE daylight
11 Mar - 19:04:07 10° W 19:05:38 11° WNW 19:07:11 10° NW daylight
12 Mar - 05:54:46 10° NNE 05:59:18 28° ENE 06:03:33 10° SE visible
12 Mar - 07:37:28 10° WNW 07:41:08 19° WSW 07:44:38 10° SSW visible
12 Mar - 16:32:10 10° SE 16:34:08 13° ESE 16:36:09 10° E daylight
12 Mar - 18:12:02 10° SW 18:15:58 32° WNW 18:20:09 10° N daylight
13 Mar - 05:08:17 10° ENE 05:09:37 11° ENE 05:10:55 10° E visible
13 Mar - 06:46:19 10° NW 06:51:25 48° WSW 06:56:06 10° S visible
13 Mar - 17:21:53 10° SSW 17:26:17 89° ESE 17:31:01 10° NNE daylight
